Wind_Speed
26 26 25 25 24 23 23 23 23 23 23 23 23 24 24 25 25 25 24 23 23 21 19 18 19 19 19 19 19 18 18 18 17 16 15 14 14 13 13 13 13 13 12 10 7 6 5 4 3 3 1 1 2 3 4 4 5 5 5 5 6 6 5 5 4 4 5 5 4 3 2 1 1 0 0 1 2 3 4 4 4 4 4 5 5
27 27 26 25 25 24 24 24 24 24 23 24 25 25 26 26 26 26 25 25 23 20 19 19 20 20 20 19 18 18 18 18 18 17 15 14 13 13 13 13 13 13 12 10 8 6 5 4 3 2 1 2 3 3 4 5 5 6 5 6 6 6 5 5 4 4 4 5 4 3 3 1 1 0 0 1 2 3 4 5 5 5 5 5 5
28 27 27 26 26 25 25 25 24 24 24 25 26 26 26 26 27 27 26 25 22 19 19 20 20 20 20 19 18 17 17 18 18 17 16 14 13 12 13 12 12 12 11 10 8 7 6 5 4 3 2 3 3 4 5 6 6 6 6 6 6 6 5 5 4 4 4 4 4 4 3 2 1 1 0 1 1 3 4 5 5 6 6 5 5
29 28 28 28 27 27 26 26 25 25 25 27 27 27 27 27 27 27 27 25 21 19 19 19 20 20 20 19 17 17 17 17 16 16 16 14 13 12 12 12 12 12 11 11 9 8 6 5 4 4 4 4 4 5 6 6 6 6 6 6 6 5 5 5 4 4 4 4 4 4 3 2 1 1 1 1 1 2 4 5 6 6 7 6 6
29 29 29 29 28 28 27 27 27 27 27 28 28 27 27 28 28 28 27 25 22 19 19 19 19 19 19 17 17 17 17 16 15 15 15 14 13 12 12 12 12 11 11 11 10 9 7 6 5 5 5 5 5 6 7 7 7 6 6 7 7 6 5 4 4 4 3 4 4 4 3 2 2 2 1 1 1 2 4 5 6 6 7 7 6
30 30 30 30 29 29 29 28 28 28 29 29 28 27 27 28 28 28 28 26 23 21 20 19 18 17 17 17 16 16 16 16 14 13 13 13 13 12 12 12 11 11 10 11 10 9 8 7 7 7 6 6 6 7 8 7 7 7 7 7 7 6 5 5 4 4 3 3 3 3 3 3 2 2 2 1 1 2 3 5 6 7 7 7 7
31 31 31 31 31 30 30 30 30 30 29 28 28 28 28 28 28 28 28 27 25 22 21 20 18 16 15 16 16 16 15 14 14 12 11 12 13 13 12 12 12 11 11 10 10 9 8 8 8 8 8 7 8 9 9 8 7 7 7 7 7 6 5 5 5 4 4 4 3 3 3 3 2 2 2 1 1 2 3 5 6 7 7 8 8
32 32 32 32 32 31 31 31 30 30 29 28 28 29 28 28 28 29 28 28 26 23 22 20 17 15 15 15 15 15 15 14 13 11 10 11 12 13 13 12 12 12 12 11 11 10 9 9 9 9 9 8 9 9 9 8 8 8 8 8 7 7 6 5 5 4 4 4 4 3 2 3 2 2 2 2 2 2 2 4 6 7 7 8 8
32 32 32 32 32 32 32 31 31 30 29 29 30 30 30 29 28 28 28 27 25 24 22 20 17 14 14 15 15 15 15 14 13 11 10 10 11 11 12 12 11 11 12 11 11 10 9 9 10 10 10 10 10 10 10 9 8 8 9 8 8 7 6 6 5 5 4 4 4 3 2 2 2 2 2 2 2 2 2 3 5 7 8 8 8
32 32 32 32 32 32 32 32 31 31 30 30 31 31 32 31 29 27 27 26 24 24 23 21 18 15 14 15 15 15 15 15 13 12 11 10 10 11 12 12 12 11 11 11 11 10 10 10 10 11 11 11 11 11 11 9 9 9 9 9 8 8 7 7 6 5 5 5 4 3 2 2 2 2 2 2 2 1 2 3 4 6 8 8 8
32 32 33 32 32 33 33 32 32 32 31 31 31 31 32 31 29 27 26 24 23 24 23 21 19 15 15 15 16 16 16 15 13 12 12 12 11 12 13 14 14 13 12 12 11 11 10 10 10 11 12 13 13 13 12 11 10 9 9 9 9 8 8 7 7 7 6 6 5 4 3 2 1 2 2 2 2 2 2 2 4 5 7 8 9
32 32 32 33 33 33 33 33 33 32 32 31 29 29 30 30 29 27 25 23 23 24 23 22 20 17 16 17 17 17 16 14 14 14 14 13 13 14 15 15 15 16 15 13 12 12 12 11 11 12 13 14 15 14 13 12 11 10 10 10 9 9 9 8 8 8 7 7 5 4 3 2 1 1 2 2 2 1 2 2 3 5 7 8 9
31 30 31 33 32 33 34 33 33 33 32 29 27 27 28 27 26 26 25 23 23 23 23 23 21 19 18 18 18 16 15 15 14 15 15 15 15 16 16 15 15 15 16 15 14 13 13 12 12 12 14 15 16 16 15 15 13 12 11 11 10 9 9 9 9 8 8 8 7 5 4 3 2 0 1 2 2 2 2 2 3 4 6 8 9
30 29 30 33 33 33 34 33 33 33 30 27 26 25 24 23 23 24 25 24 24 23 23 24 23 20 19 19 17 16 15 15 15 16 16 16 16 17 17 15 14 14 15 15 14 14 14 14 13 13 14 16 16 16 17 17 15 14 13 12 11 10 10 10 9 9 9 9 8 7 5 4 3 1 1 2 3 2 2 3 4 4 6 7 8
29 27 29 33 34 34 33 33 32 31 29 26 24 23 23 22 23 25 26 25 25 25 24 25 24 21 20 19 17 15 15 15 16 16 17 17 18 18 17 15 14 13 13 14 14 15 15 15 14 13 15 17 17 17 18 19 18 16 15 13 12 11 11 11 10 10 10 10 9 8 7 5 4 3 1 1 3 3 3 3 4 5 6 7 8
27 25 28 32 34 33 32 32 30 29 26 22 21 21 21 22 23 25 27 27 27 26 26 26 25 21 20 18 16 16 16 15 16 17 18 18 18 18 17 16 15 13 11 12 14 15 15 15 14 14 15 17 18 18 18 19 19 18 17 15 14 13 12 12 12 11 11 11 10 9 8 7 6 5 3 1 2 3 4 4 4 5 6 7 8
25 24 26 30 32 32 31 29 27 23 20 18 17 16 16 18 21 25 28 30 29 27 28 27 24 20 18 17 16 16 15 15 16 17 18 18 17 16 16 16 15 12 10 10 12 15 15 16 15 15 16 18 19 19 19 20 20 19 18 17 15 14 14 14 13 13 13 12 12 11 10 9 8 6 5 3 2 3 4 4 4 4 5 7 8
25 23 24 26 29 30 28 26 24 19 18 18 16 15 15 18 22 25 29 30 29 28 27 25 21 19 17 17 16 16 15 15 16 17 16 16 15 15 15 16 16 13 11 9 10 13 15 16 17 16 17 18 20 21 20 20 20 20 19 18 17 16 15 15 15 15 15 14 13 12 11 10 10 8 7 5 3 3 4 5 5 5 5 6 7
24 22 22 22 25 28 28 25 25 21 19 20 19 21 20 20 23 25 28 30 29 27 24 20 18 17 17 16 16 16 15 16 16 17 17 17 17 16 16 16 16 15 13 11 11 12 14 16 17 17 17 19 21 22 22 21 21 21 20 19 18 18 17 17 17 17 17 16 15 14 13 12 11 10 9 8 6 4 4 5 6 6 5 6 6
22 20 20 21 22 26 28 26 26 24 21 23 23 22 19 18 22 26 27 28 27 23 20 18 17 17 16 16 16 16 16 17 18 19 19 20 19 18 18 17 16 15 14 13 13 13 14 15 17 17 18 19 21 22 23 23 22 22 21 21 20 20 19 19 19 19 19 18 17 16 15 14 13 12 11 10 8 7 6 6 6 7 7 6 6
21 19 18 21 23 23 26 27 27 23 19 19 17 16 16 18 21 24 24 24 23 19 18 18 17 15 14 15 16 16 18 19 19 20 20 20 19 19 18 17 16 16 15 14 14 14 14 15 17 18 18 19 21 23 24 24 24 23 23 22 22 22 21 20 20 20 20 20 19 17 17 16 15 14 13 12 11 9 8 7 7 7 8 8 7
20 19 16 20 23 21 24 26 25 21 17 15 16 18 17 17 18 18 18 18 18 18 18 17 16 14 14 16 16 17 19 20 20 19 19 18 17 17 17 17 17 16 16 16 16 16 16 16 18 19 20 20 21 23 24 25 25 25 25 24 24 24 22 22 22 22 22 22 20 19 18 18 17 16 15 14 13 12 10 9 9 8 8 9 9
21 20 18 21 23 22 23 24 24 23 20 19 21 21 17 15 16 15 16 18 20 20 19 17 14 14 15 15 16 17 19 20 19 17 16 15 14 15 15 16 16 16 16 16 16 17 16 17 18 20 21 20 21 23 25 26 25 25 26 27 26 25 24 24 24 24 24 23 22 21 20 19 19 18 17 16 16 15 13 12 11 10 10 10 10
21 20 19 21 22 22 22 23 24 23 22 21 20 20 18 17 16 16 16 19 21 20 18 15 14 15 14 14 16 18 19 18 17 16 15 14 14 15 15 15 15 15 14 15 15 16 16 17 18 20 21 20 21 23 26 26 26 27 27 28 27 26 26 26 26 26 25 24 23 23 22 21 21 20 19 18 18 17 16 14 13 13 12 11 11
21 20 20 21 21 22 22 22 23 21 20 20 21 21 22 20 19 19 17 17 18 17 14 13 12 12 13 14 16 17 16 15 15 15 16 14 13 15 15 15 15 14 14 14 15 16 16 17 18 19 20 21 21 23 25 27 27 27 28 28 28 28 27 27 27 27 27 26 25 25 24 23 22 22 21 20 20 19 18 17 16 15 14 13 13
23 22 21 21 22 23 23 21 21 20 19 20 22 21 21 21 19 19 15 13 14 14 14 11 10 11 12 13 13 13 11 13 15 15 15 13 12 14 15 15 15 14 13 14 15 16 17 17 17 18 18 19 21 22 24 26 27 27 27 28 28 28 29 28 29 28 28 27 27 26 25 25 24 24 23 23 22 21 21 20 18 17 17 16 15
22 22 22 21 21 22 22 21 20 20 20 19 20 20 20 20 20 19 13 10 11 13 13 10 9 10 10 11 11 10 10 12 14 13 12 10 12 14 14 14 14 13 13 13 14 15 16 16 17 17 17 17 19 21 23 24 25 26 26 26 27 28 28 29 29 29 28 28 28 27 27 26 26 25 25 24 24 24 23 22 21 19 18 18 17
20 21 23 23 23 21 20 19 19 20 20 19 18 17 19 20 21 18 11 10 10 11 13 11 9 9 9 9 10 9 9 9 11 10 10 9 11 12 11 12 12 12 13 12 13 14 15 15 15 16 16 16 17 19 20 21 23 24 24 25 25 26 27 27 27 27 28 28 28 28 27 27 27 27 26 26 26 26 25 23 23 22 21 19 19
18 19 22 24 25 23 20 18 18 19 19 19 17 15 15 15 15 14 13 13 11 10 11 8 6 7 8 9 9 8 7 8 9 9 10 10 11 10 10 10 10 12 13 14 13 14 14 15 15 15 15 15 16 17 18 19 21 22 23 24 25 26 26 25 25 26 27 27 27 27 27 27 27 27 27 28 28 27 27 25 24 24 23 22 20
19 19 20 20 22 22 22 20 19 19 18 18 16 13 11 10 11 12 14 15 13 10 8 5 4 6 7 8 7 6 7 8 8 9 10 11 10 9 8 8 9 11 13 15 14 14 14 15 15 15 15 15 16 17 19 20 21 22 23 24 25 26 25 25 25 26 26 26 26 26 27 27 27 27 27 28 28 28 28 27 26 26 25 24 22
20 20 20 18 16 18 21 22 19 16 17 17 15 12 12 15 17 15 15 14 10 7 6 5 4 5 6 6 7 6 7 8 8 9 10 10 10 9 9 9 9 10 12 14 14 14 13 14 14 13 14 15 16 17 18 20 22 23 24 24 25 25 25 25 25 25 26 26 26 26 27 27 27 27 27 27 28 29 29 29 29 28 27 26 25
17 18 17 15 13 15 17 18 18 16 16 16 16 16 17 17 17 19 20 15 9 9 11 10 6 5 6 6 7 7 8 8 8 8 9 10 10 9 9 9 9 10 11 12 13 14 13 14 14 14 14 15 17 17 17 18 19 22 24 25 26 26 25 25 24 25 25 26 26 27 27 27 27 27 27 27 28 28 29 30 30 30 29 28 27
13 13 13 11 11 13 12 14 17 15 13 14 16 18 18 16 15 19 21 19 18 19 16 11 8 6 6 7 7 8 8 7 7 7 9 10 9 9 9 9 9 10 11 10 12 13 13 13 13 13 13 14 16 17 17 17 18 20 23 25 27 27 27 25 25 25 25 25 25 26 25 26 26 27 27 27 28 29 30 30 31 31 30 30 29
8 9 10 10 10 10 9 12 15 14 13 14 17 17 16 14 14 16 19 20 20 18 14 10 8 7 7 7 8 9 8 7 6 6 8 8 8 8 9 10 10 10 10 10 11 12 12 11 11 12 11 10 12 14 15 16 17 18 19 22 24 26 27 26 26 27 27 27 27 26 25 25 25 27 29 29 30 30 30 30 30 31 30 30 30
5 8 10 11 10 9 7 10 11 12 14 15 16 14 12 11 10 10 12 13 14 14 13 10 8 7 8 8 9 9 9 7 7 7 6 7 8 9 10 10 10 10 10 9 10 12 11 11 11 11 10 9 10 11 13 14 15 15 16 18 20 22 25 26 27 28 29 29 29 28 27 26 26 26 28 30 31 32 31 31 30 31 30 31 31
7 9 12 12 12 10 7 7 9 11 12 12 12 12 11 10 10 10 11 12 13 13 13 11 9 9 9 9 10 11 10 8 8 7 7 7 8 9 9 10 10 11 10 9 10 11 12 12 12 13 12 10 10 11 12 12 12 13 14 15 17 18 20 22 24 25 26 28 28 28 28 28 28 28 28 27 28 30 31 32 31 31 31 31 31
12 11 15 15 13 11 7 6 10 12 12 11 10 10 10 10 12 13 13 13 13 13 12 12 11 10 10 10 11 12 10 9 8 8 8 8 8 9 9 9 10 10 11 11 12 12 13 14 14 14 12 10 10 10 11 11 11 11 12 13 14 15 16 17 18 20 21 23 24 25 26 26 27 29 29 29 27 26 27 29 31 31 31 31 30
16 15 17 17 14 13 9 8 11 12 13 12 9 7 8 10 13 14 14 14 14 13 13 13 12 12 12 11 11 12 11 9 9 9 9 8 8 9 9 9 10 10 11 12 14 14 15 16 16 15 12 10 10 11 11 11 11 11 10 10 11 12 13 14 15 16 17 19 20 21 21 22 23 25 27 28 27 26 26 26 27 28 30 30 29
18 17 18 17 15 14 11 10 13 14 14 13 11 9 9 11 13 15 15 15 15 15 14 14 14 13 12 12 12 12 11 10 10 10 10 10 10 10 9 9 10 10 11 13 15 16 15 16 17 15 13 11 11 12 11 10 10 10 9 9 9 10 11 11 12 13 14 16 17 18 19 20 22 24 25 26 26 26 26 26 26 28 28 28 28
17 17 17 16 15 15 13 12 15 18 17 16 15 14 13 14 16 17 18 17 17 15 14 14 14 14 13 12 12 12 12 11 11 11 11 11 11 10 10 10 10 11 11 12 16 17 16 16 16 16 14 12 12 12 12 11 10 10 9 9 9 9 10 10 11 12 13 14 15 16 17 19 22 25 27 27 26 25 25 26 27 27 27 26 26
17 16 16 15 15 15 14 14 16 19 19 19 20 19 17 16 17 17 18 18 17 15 14 13 13 13 13 12 12 12 12 12 12 12 11 11 11 11 11 11 11 12 11 11 14 17 16 16 16 16 16 16 15 13 12 13 12 11 11 11 11 11 10 11 11 12 13 14 15 16 17 18 20 23 25 26 26 26 25 25 25 26 26 26 26
17 16 16 14 14 13 12 14 15 16 17 18 19 19 18 17 16 17 17 17 16 14 14 13 12 12 12 12 12 11 12 12 12 12 11 11 12 12 12 12 12 12 12 12 13 15 16 17 17 17 18 18 17 15 14 14 13 13 12 12 13 12 11 11 12 12 13 14 15 17 17 17 18 18 18 21 23 24 24 25 24 23 23 24 25
19 18 16 12 11 11 10 11 11 12 14 16 16 16 16 15 14 15 16 16 15 13 12 12 11 11 11 11 11 11 11 11 12 11 12 12 12 13 13 13 13 13 13 13 13 15 17 17 17 18 19 19 19 18 16 15 14 15 14 14 14 14 13 13 13 12 13 15 16 17 17 18 18 17 15 14 16 19 21 21 19 17 17 19 21
17 16 12 10 10 9 9 10 11 13 14 15 14 13 12 11 11 12 13 14 13 12 11 9 9 9 10 10 11 10 9 9 10 11 11 12 13 14 14 14 14 14 15 14 14 15 17 17 17 18 19 20 20 19 17 16 16 16 16 16 16 17 16 15 15 14 14 15 16 17 18 18 18 18 16 13 13 15 19 19 16 16 17 18 19
9 8 6 9 12 13 13 14 15 17 17 16 14 12 11 10 10 10 11 11 12 11 9 8 8 9 9 10 10 10 9 8 8 9 10 11 12 14 14 15 15 15 15 16 16 17 18 18 18 19 20 21 20 19 18 18 18 18 18 18 19 20 18 16 16 15 15 16 16 17 18 19 19 19 18 16 14 14 14 15 16 17 17 18 20
9 11 13 16 18 17 18 19 19 19 17 15 13 11 10 9 9 9 10 11 11 10 10 9 9 9 11 11 11 11 10 9 8 9 10 11 12 13 14 15 15 15 16 17 18 19 19 19 19 20 21 21 20 20 20 20 19 19 19 20 20 21 20 18 18 17 16 16 16 17 19 20 20 19 19 18 18 16 15 15 16 17 19 20 22
13 17 19 20 19 17 17 19 20 19 17 13 11 9 8 8 8 8 9 10 11 11 11 12 11 10 10 11 12 13 13 12 11 11 11 12 13 13 14 15 16 16 17 18 19 20 20 20 20 21 21 21 21 20 20 20 20 21 21 21 22 22 21 21 20 18 18 18 18 19 20 20 20 19 20 20 20 19 19 18 18 19 21 22 23
17 20 23 21 15 15 17 19 20 19 17 14 11 9 8 9 9 9 9 10 11 12 13 14 12 10 9 9 11 13 14 14 14 13 12 13 14 14 15 16 16 17 18 19 20 21 21 21 21 22 21 21 21 21 21 21 21 21 22 22 23 23 23 22 21 20 20 19 19 19 19 20 20 21 21 21 21 21 21 21 21 21 22 23 23
20 19 21 21 16 17 21 20 18 17 14 13 11 9 9 10 10 10 10 10 10 11 13 15 14 11 9 9 10 11 12 14 14 14 13 13 14 14 15 16 17 18 19 20 20 21 21 22 22 22 22 22 22 22 22 22 22 22 22 22 23 24 24 24 23 22 21 20 19 19 20 21 21 22 22 22 22 22 22 22 22 23 23 23 24
21 16 16 18 17 19 21 22 21 18 15 13 10 10 11 11 10 10 10 10 11 11 12 15 16 14 12 11 11 11 12 13 13 14 14 14 14 15 15 16 17 18 19 20 21 21 22 22 22 22 22 22 22 22 22 23 23 23 23 23 23 24 24 24 23 23 22 21 20 20 20 21 21 21 22 22 22 22 22 23 23 23 24 24 24
20 16 15 16 15 17 19 21 24 21 17 14 12 12 13 13 13 12 11 11 12 13 13 14 16 16 14 12 12 13 13 13 13 14 15 15 16 16 16 17 18 19 19 20 21 21 22 22 22 22 23 22 22 23 23 23 23 24 24 24 24 24 24 24 23 22 22 21 20 19 19 20 20 20 20 21 21 21 21 22 23 23 24 24 25
Wind_Direction
281 282 283 284 283 283 281 279 279 280 283 285 287 289 291 294 299 306 309 311 312 311 308 309 312 316 321 326 330 331 329 327 326 327 327 326 324 324 324 323 323 323 324 326 325 325 326 326 334 349 344 266 260 254 249 255 272 286 295 304 307 310 311 304 292 273 263 260 259 258 257 258 286 11 76 146 161 161 156 154 155 155 152 143 135
280 282 283 283 283 282 281 279 279 280 282 284 285 287 289 293 299 304 307 311 311 306 302 302 306 312 318 323 326 327 325 325 325 326 327 326 324 323 322 321 321 321 321 321 318 316 316 315 315 317 296 255 257 256 253 256 271 284 289 297 303 312 318 315 308 289 272 264 259 255 255 254 260 276 116 140 161 165 162 159 159 159 155 150 145
281 281 282 283 283 282 281 279 279 280 282 283 284 286 290 295 299 302 307 311 310 303 298 299 303 309 314 318 321 322 323 324 326 325 326 326 324 322 319 317 317 316 316 315 313 309 308 304 293 279 266 250 249 252 253 257 269 283 286 291 300 311 320 322 317 300 283 270 261 254 250 251 250 246 220 158 160 165 167 165 165 163 158 158 154
281 281 281 282 282 281 280 279 279 281 282 282 283 287 292 297 299 300 304 308 307 302 298 298 301 306 310 313 316 319 321 324 327 325 323 323 322 319 315 313 311 311 312 312 310 305 298 291 278 262 252 245 243 246 251 257 268 283 287 287 295 306 318 325 322 311 295 277 267 259 253 250 249 246 239 193 155 159 169 171 170 167 162 162 159
279 280 280 280 280 279 278 278 279 281 281 281 284 289 294 296 297 298 302 305 304 301 298 298 301 304 307 309 311 315 319 323 325 321 317 316 316 313 309 308 308 309 310 310 308 300 290 281 270 254 247 241 238 243 249 258 268 281 286 284 290 300 313 323 328 323 309 291 278 269 261 256 253 248 243 220 164 159 169 174 175 173 168 166 164
277 278 279 279 279 278 277 278 279 280 280 281 285 290 294 295 296 297 299 301 300 298 297 298 301 303 305 308 309 313 317 319 318 313 310 309 308 306 305 305 305 306 307 306 303 297 286 276 267 252 243 238 235 241 249 257 266 277 281 281 287 297 307 320 331 336 331 314 298 285 273 264 261 258 253 238 200 168 170 176 178 178 175 171 168
278 278 279 279 279 279 279 280 280 281 281 283 287 290 292 292 294 295 297 297 295 295 294 295 298 301 305 307 307 310 312 312 309 305 304 304 303 303 304 303 302 302 302 301 299 296 287 275 265 253 242 236 234 239 246 254 263 271 276 278 285 293 302 314 329 341 344 334 317 306 286 271 262 263 258 249 231 194 176 179 181 181 181 178 174
279 280 280 281 281 282 283 282 282 283 284 287 288 289 289 289 292 294 294 293 292 292 291 290 292 295 302 304 302 304 306 305 301 299 300 302 304 304 304 303 303 302 300 298 296 294 288 275 263 254 242 235 235 239 245 251 260 267 271 276 282 289 295 308 324 336 346 347 337 329 302 275 258 252 249 248 243 223 195 185 184 183 184 183 181
280 281 282 283 285 286 286 285 285 285 287 289 289 289 287 287 290 293 292 290 287 287 286 283 283 287 295 296 295 298 298 297 296 297 297 299 304 306 305 305 306 302 299 296 293 291 285 273 260 253 242 235 236 238 244 248 257 263 267 273 279 285 291 301 314 327 338 348 347 341 320 284 254 240 232 233 236 238 221 198 191 187 186 186 185
281 283 285 286 287 287 286 286 287 288 289 289 289 288 287 286 288 291 289 284 282 282 280 276 275 277 285 287 288 291 292 292 295 296 294 295 301 306 306 304 303 300 297 294 290 287 282 271 258 251 243 236 236 237 241 247 254 261 265 270 275 281 286 294 305 317 327 338 346 345 336 307 261 235 219 214 218 229 234 215 201 193 189 187 186
282 284 287 287 287 286 287 288 289 289 290 290 291 290 288 285 285 286 281 274 275 277 274 271 270 269 275 279 281 284 286 290 294 294 294 296 299 301 301 298 296 294 292 288 285 282 277 270 258 249 243 236 234 234 238 244 251 259 264 267 273 277 280 288 299 308 316 326 335 340 341 330 289 236 210 201 207 212 220 221 212 202 195 189 187
282 286 288 288 288 288 291 293 293 293 294 292 292 292 288 283 281 280 271 264 266 268 268 266 265 265 269 272 275 280 284 289 291 294 298 300 301 300 299 295 291 287 284 280 278 275 271 266 257 249 242 236 233 232 234 241 248 256 261 264 270 274 277 283 291 299 305 312 318 324 333 334 325 236 202 190 192 199 197 206 211 208 202 193 188
286 291 291 290 291 292 295 297 296 295 294 292 292 291 286 280 277 272 262 256 257 261 262 260 260 260 262 267 271 277 281 286 291 296 300 302 302 300 298 295 291 285 281 277 273 270 266 260 254 248 241 236 233 230 231 237 243 251 256 259 265 271 273 275 282 289 294 298 305 311 319 324 320 274 188 185 182 184 186 189 198 206 206 198 190
293 294 293 292 293 294 296 296 294 293 291 290 291 286 281 275 269 263 258 254 254 258 259 256 254 253 257 264 269 273 277 284 292 297 301 302 302 300 298 295 293 289 284 278 270 265 263 259 251 245 240 235 232 228 229 233 237 244 250 253 258 264 268 270 274 279 283 289 294 300 305 308 306 294 199 182 183 181 180 181 185 195 202 199 193
295 293 292 291 293 295 295 295 292 290 289 288 286 279 274 271 264 260 258 253 250 254 255 252 248 247 256 263 265 269 274 283 290 296 300 302 302 301 298 294 296 295 288 278 266 259 258 257 251 244 239 234 231 228 228 231 234 239 244 248 252 256 260 264 267 271 275 280 285 290 294 295 293 289 266 187 183 186 184 182 182 186 193 195 194
291 289 289 291 293 294 294 291 287 287 286 284 281 274 269 268 266 262 258 249 245 250 250 244 243 247 256 259 261 266 273 281 290 297 301 301 300 299 297 295 298 299 292 276 260 255 254 254 251 245 241 236 232 227 227 230 232 236 240 243 246 249 252 256 260 265 268 272 275 280 284 285 283 280 274 238 190 189 191 189 185 185 188 190 191
288 287 290 292 292 292 292 289 287 289 287 284 281 272 264 264 266 261 256 249 242 245 243 236 239 246 251 253 259 267 274 283 294 301 301 300 298 297 296 296 296 293 288 276 258 254 254 253 250 244 240 236 233 229 226 228 231 234 238 240 242 245 247 250 254 258 262 264 266 268 272 275 276 274 271 261 223 201 201 200 196 191 190 190 190
290 290 292 292 291 290 290 286 285 288 284 280 279 276 270 267 267 258 255 251 241 237 233 231 236 241 244 252 262 270 276 287 296 300 300 299 298 296 295 296 295 286 278 277 263 256 256 255 251 243 238 234 233 231 227 228 232 235 237 239 240 242 244 246 249 252 255 258 259 260 262 265 268 269 269 265 250 226 214 211 209 202 196 194 194
292 291 290 291 290 287 287 284 281 285 283 276 277 278 270 265 265 259 257 251 236 227 225 228 232 234 241 254 266 272 277 286 293 294 294 294 295 294 293 293 292 284 272 266 262 259 258 256 253 246 240 235 233 232 229 227 231 235 237 238 239 240 241 243 245 248 250 252 254 255 256 258 260 262 264 265 260 246 231 223 218 213 205 198 198
291 289 288 287 282 279 284 284 282 286 286 280 279 276 267 265 263 257 252 238 225 219 221 226 227 231 244 258 268 273 278 286 291 293 291 289 290 291 290 289 286 281 271 262 259 259 260 258 255 250 243 238 234 232 231 228 230 234 237 238 238 238 238 240 242 245 246 248 249 251 253 254 256 258 259 260 260 255 245 234 226 220 214 207 203
285 285 284 281 276 275 278 279 282 282 276 273 270 266 271 274 263 250 235 221 219 220 222 226 228 236 251 262 269 275 283 290 295 295 291 288 288 288 287 286 282 277 270 263 259 258 258 257 255 253 248 241 235 232 232 230 230 233 237 239 238 237 237 238 241 243 244 245 246 247 249 251 252 254 256 257 257 256 252 245 237 229 223 217 213
278 277 276 275 276 275 271 270 274 270 263 263 264 270 277 272 255 241 232 230 236 233 231 231 231 243 257 266 271 278 287 293 295 294 291 289 289 289 287 284 280 276 272 267 264 260 256 253 252 251 249 244 236 231 232 232 230 232 236 239 239 238 238 239 241 242 243 244 245 246 247 249 250 250 251 253 254 254 254 251 247 240 232 226 221
277 270 262 262 266 268 268 269 268 263 264 268 270 272 271 263 250 237 233 238 240 234 230 226 232 252 263 270 275 282 287 290 291 290 292 294 295 294 291 287 282 278 276 273 269 264 257 251 248 246 245 242 237 231 232 234 233 232 235 239 242 242 241 241 242 244 244 244 245 246 246 246 247 247 246 248 251 251 252 252 251 247 241 235 229
275 267 260 260 264 264 266 269 269 266 266 268 270 265 259 256 242 225 221 226 226 219 217 223 242 261 268 274 279 284 286 287 285 286 292 298 302 299 293 287 283 279 276 274 270 263 257 251 246 244 242 239 236 233 232 235 236 235 236 239 242 244 245 244 245 247 247 247 246 247 245 244 244 245 245 246 248 249 249 250 251 250 246 242 237
266 262 259 262 262 264 266 266 268 269 267 267 269 262 255 250 238 231 231 230 224 218 225 244 259 263 268 276 281 284 285 284 280 285 293 298 302 298 290 284 279 275 271 269 266 261 255 251 247 244 241 239 237 235 234 235 237 238 238 239 242 244 246 246 247 248 249 248 248 247 246 245 244 244 245 246 247 247 247 247 249 250 249 246 243
264 260 257 256 257 265 271 268 265 267 268 268 267 261 253 247 238 234 231 227 230 235 243 252 259 263 272 278 280 282 282 282 282 286 293 299 301 292 284 278 274 271 269 265 262 260 256 253 251 247 244 241 239 239 237 236 238 240 241 242 243 244 246 247 248 249 250 249 248 247 246 246 245 244 244 245 246 247 246 247 248 250 250 250 248
264 264 261 257 260 268 271 268 265 265 269 269 264 256 249 244 233 222 216 226 239 242 238 243 261 265 271 275 275 278 278 277 280 285 291 296 290 281 276 276 275 274 271 266 262 261 260 257 254 251 247 243 240 240 240 240 240 242 244 245 245 245 246 248 249 250 250 248 247 246 246 245 245 244 245 245 245 246 247 248 250 251 251 252 251
263 265 265 263 264 267 268 266 265 266 267 266 257 247 244 238 224 216 224 244 247 243 239 250 271 264 260 267 270 275 274 270 274 280 284 278 270 269 271 274 275 275 271 266 262 261 260 259 257 254 249 243 239 238 239 241 243 244 245 246 247 247 248 249 251 251 250 249 247 247 247 247 247 246 247 247 247 247 247 248 250 252 252 252 253
266 271 274 270 265 266 270 268 265 265 263 259 246 233 235 232 226 237 252 252 251 253 248 253 269 263 259 264 269 272 267 264 268 271 269 264 264 268 273 274 274 273 270 267 264 263 261 259 259 257 252 245 238 235 234 236 239 242 244 245 246 247 247 248 249 249 249 248 248 248 248 249 249 249 249 249 249 249 249 248 250 252 253 253 253
270 277 281 280 273 269 268 268 271 264 251 243 231 221 232 253 268 268 257 252 254 254 253 260 263 261 265 267 269 268 261 261 262 263 264 266 269 275 279 281 278 276 273 270 267 266 262 257 254 253 251 247 242 236 233 232 233 235 239 242 245 247 248 248 248 248 249 248 247 247 247 248 249 250 251 251 252 252 252 251 251 251 253 254 254
275 278 280 283 282 272 264 264 264 244 223 221 222 231 254 274 279 268 260 260 254 244 262 288 285 270 275 275 272 266 258 259 262 264 268 271 272 272 277 283 285 283 280 275 269 261 255 250 247 246 247 247 243 240 237 235 233 232 235 238 242 245 247 248 249 249 250 249 247 245 244 245 247 249 250 251 252 253 253 253 253 253 254 255 256
279 279 280 281 275 268 264 255 242 220 210 222 237 254 267 275 274 265 263 263 260 271 283 290 289 282 278 273 269 262 256 257 261 266 270 272 271 270 274 281 286 287 285 281 269 255 247 245 245 244 245 246 245 244 245 243 240 236 234 236 239 242 244 246 249 250 250 250 249 247 245 245 246 247 248 249 250 251 252 252 252 252 252 253 255
279 280 280 281 269 265 260 240 231 227 230 243 255 266 271 273 272 265 260 260 269 277 279 277 273 272 268 264 262 260 260 258 256 263 268 269 271 272 272 273 279 282 281 278 266 252 245 244 244 241 241 244 247 246 246 248 248 243 237 236 238 240 242 245 246 248 249 249 250 249 249 249 249 249 248 248 248 249 249 250 251 252 252 252 253
267 279 286 290 282 273 258 243 244 252 256 257 257 261 267 269 268 262 255 256 264 268 266 262 263 268 266 263 259 258 262 262 257 258 264 268 269 269 269 268 273 276 274 272 261 249 243 241 238 235 232 235 242 244 243 242 245 244 240 239 240 241 242 244 245 247 248 248 250 250 250 252 252 252 250 247 246 247 247 249 251 253 254 255 255
262 287 297 299 295 294 273 251 247 248 248 247 244 243 246 253 259 254 246 244 247 252 256 257 260 265 267 265 259 257 258 259 260 260 265 270 268 266 268 268 269 271 271 264 254 245 235 232 235 237 235 235 241 244 242 240 240 241 242 243 244 245 245 245 246 248 249 250 251 252 251 251 252 254 254 247 244 244 245 247 250 251 253 255 257
287 294 299 295 288 291 281 242 225 223 224 223 219 217 222 234 243 240 233 231 234 241 245 249 256 261 264 265 261 260 260 259 263 265 264 264 264 265 267 267 267 270 269 257 246 240 231 235 247 251 249 246 247 248 247 245 244 244 244 246 249 252 252 250 250 250 252 253 253 253 254 253 252 256 260 255 248 244 243 243 246 248 251 253 256
280 286 291 284 274 273 266 219 203 198 190 188 194 205 215 221 224 225 225 227 231 234 236 242 250 252 255 259 260 261 261 260 259 259 257 253 257 262 265 266 266 268 268 255 242 234 234 245 256 255 253 252 249 249 249 248 248 247 247 248 252 256 258 258 257 256 256 256 256 255 255 256 255 256 259 260 257 252 247 243 243 246 248 252 255
274 281 283 273 261 256 249 218 201 196 187 179 178 195 211 213 214 218 223 229 234 239 241 244 246 250 253 255 257 258 258 256 252 252 251 244 246 253 259 265 266 266 265 255 244 236 237 248 254 253 253 254 253 250 247 249 250 250 251 252 255 258 260 264 267 266 264 263 263 264 263 263 263 261 259 260 259 257 254 250 247 247 249 252 256
275 278 275 263 253 245 237 216 202 204 201 188 188 211 229 228 225 227 231 236 240 243 245 246 247 251 254 259 262 261 259 255 250 248 244 238 239 244 248 256 261 262 261 256 250 245 243 247 251 253 253 250 255 258 254 254 254 254 257 259 262 263 264 266 270 272 272 271 271 272 273 271 269 267 264 262 260 258 256 255 253 252 251 252 254
274 272 266 253 245 239 233 219 207 209 212 208 217 236 245 239 233 233 236 240 242 243 245 247 248 252 258 265 269 267 263 256 251 247 242 238 236 236 240 246 251 255 256 257 257 254 251 251 251 251 252 251 257 262 259 258 258 260 264 268 271 272 271 271 273 276 277 278 278 277 277 279 276 271 266 263 262 260 258 257 254 253 253 252 253
269 262 253 239 232 231 226 219 213 214 219 226 235 243 244 237 231 231 234 239 241 241 241 242 247 253 259 266 269 269 265 257 250 246 244 241 236 234 236 240 245 249 250 253 259 259 253 253 252 249 253 256 258 261 261 262 264 268 272 275 275 273 273 275 277 279 278 277 279 280 283 288 287 279 269 263 262 261 259 259 257 254 254 255 255
262 249 241 231 222 219 217 217 217 219 224 231 236 237 234 230 226 227 232 237 238 237 236 237 242 249 253 258 260 262 262 257 250 246 243 241 238 235 235 238 241 244 246 246 251 257 253 251 250 248 252 257 257 260 263 264 266 270 274 275 275 274 275 277 277 278 277 276 276 277 281 289 295 293 278 265 261 260 259 259 256 253 253 254 255
256 242 232 219 204 202 209 215 219 222 227 230 232 232 231 229 228 230 233 236 237 238 238 239 241 244 245 246 246 246 251 253 249 244 241 239 237 235 234 236 238 240 244 243 242 252 256 253 249 247 249 251 253 258 262 262 263 268 271 273 275 276 275 276 278 280 281 281 278 276 278 285 293 299 294 282 268 259 256 253 247 248 253 256 258
243 231 224 213 209 221 234 235 234 234 237 241 243 242 241 241 240 238 237 238 240 242 244 245 241 238 234 233 235 235 235 242 245 241 237 236 234 234 233 234 236 237 239 240 239 243 250 251 250 248 248 249 252 257 259 258 259 263 268 273 276 278 277 277 279 282 284 284 283 281 280 283 288 292 297 300 287 263 251 247 247 254 259 260 261
236 234 275 271 253 254 256 249 242 238 237 238 238 239 241 245 249 249 250 251 250 248 247 243 237 236 235 230 230 232 229 232 243 246 243 239 237 235 234 234 235 236 237 238 238 238 242 245 246 247 248 251 254 256 257 257 259 261 265 269 272 277 280 279 278 280 282 284 284 284 283 283 284 285 288 293 294 282 264 257 259 263 263 263 264
270 266 282 277 262 258 253 243 235 231 228 226 227 230 235 240 246 255 264 265 259 249 239 235 241 249 248 242 237 238 237 235 243 255 257 253 248 244 242 239 238 237 237 238 239 240 241 242 244 246 248 250 253 255 257 259 262 264 266 268 269 273 277 279 280 279 279 279 279 281 284 285 284 283 283 285 288 289 283 276 272 270 270 269 268
269 261 262 263 262 261 247 233 233 236 232 229 231 232 235 238 242 252 261 263 259 249 239 237 244 252 253 250 246 245 245 245 247 255 262 261 257 253 249 247 244 241 240 239 240 241 242 243 244 246 248 251 254 256 259 261 264 267 269 271 272 273 275 278 279 277 276 276 275 278 281 283 283 283 284 284 284 285 283 281 279 276 275 275 274
261 261 258 256 260 261 246 236 242 246 241 241 242 233 233 236 237 242 247 250 253 252 246 242 239 241 253 262 260 258 255 253 253 255 260 260 256 254 252 251 249 247 245 244 244 244 245 246 246 248 250 253 256 259 262 264 266 268 270 272 274 275 275 274 274 274 274 273 272 274 275 276 278 281 282 281 280 280 279 279 279 279 278 278 278
254 262 258 252 255 253 248 242 240 243 245 251 254 250 249 247 243 245 246 245 247 249 247 241 238 243 261 281 286 282 273 265 262 261 261 259 256 253 252 251 251 250 250 249 248 249 249 250 250 252 253 255 258 261 263 266 267 268 270 271 273 274 274 273 272 272 270 268 267 267 268 270 273 275 277 278 277 277 276 276 277 278 279 279 279
253 266 260 254 255 249 247 241 232 237 246 248 255 261 260 256 252 251 250 248 245 246 245 241 243 251 264 284 297 299 289 277 270 266 265 264 262 259 256 254 253 252 252 253 253 254 255 255 256 257 258 259 261 262 264 266 267 269 270 271 271 272 272 272 271 270 269 268 266 265 265 267 269 271 273 274 275 276 276 276 276 277 278 278 278
259 275 270 264 264 259 258 249 236 235 238 240 249 258 259 261 262 262 261 257 248 244 243 242 246 254 262 276 293 299 293 282 273 267 264 264 264 263 262 260 258 256 256 255 256 258 259 260 260 261 262 263 264 266 267 269 270 272 272 272 271 271 271 271 269 268 268 267 266 266 265 266 267 268 270 271 273 274 274 275 276 276 276 276 277
Height
5862 5862 5861 5861 5861 5861 5861 5860 5859 5859 5859 5858 5858 5857 5857 5857 5857 5857 5857 5857 5856 5855 5855 5854 5853 5853 5852 5852 5852 5852 5851 5851 5851 5851 5850 5850 5850 5849 5849 5849 5849 5849 5848 5848 5848 5848 5847 5847 5848 5848 5848 5848 5848 5848 5848 5848 5848 5848 5848 5848 5848 5848 5848 5848 5848 5848 5849 5849 5849 5849 5849 5849 5850 5850 5850 5851 5851 5851 5851 5852 5852 5852 5852 5853 5853
5860 5860 5859 5859 5859 5859 5859 5858 5858 5857 5857 5857 5856 5856 5856 5856 5856 5856 5856 5855 5854 5854 5853 5853 5852 5852 5851 5851 5851 5850 5850 5849 5849 5849 5849 5849 5849 5849 5848 5848 5848 5848 5848 5847 5847 5847 5847 5847 5847 5847 5847 5847 5847 5847 5847 5848 5848 5848 5848 5848 5848 5848 5848 5848 5848 5848 5848 5848 5849 5849 5849 5849 5849 5850 5850 5850 5851 5851 5851 5851 5852 5852 5852 5852 5853
5858 5858 5857 5857 5857 5857 5857 5857 5856 5856 5856 5855 5855 5854 5854 5855 5855 5854 5854 5853 5853 5852 5851 5851 5851 5850 5850 5850 5849 5849 5849 5848 5848 5848 5848 5848 5848 5848 5848 5847 5847 5847 5846 5846 5846 5846 5846 5846 5846 5846 5846 5846 5847 5847 5847 5847 5847 5847 5847 5847 5847 5847 5847 5847 5847 5847 5848 5848 5848 5848 5848 5849 5849 5850 5850 5850 5851 5851 5851 5851 5851 5852 5852 5852 5853
5856 5856 5856 5855 5855 5855 5855 5855 5855 5854 5854 5853 5853 5853 5853 5853 5853 5853 5852 5852 5851 5850 5850 5850 5849 5849 5849 5849 5848 5848 5847 5848 5847 5847 5847 5847 5847 5847 5847 5846 5846 5846 5845 5845 5845 5845 5845 5845 5845 5845 5845 5846 5846 5846 5846 5846 5847 5847 5847 5847 5847 5847 5847 5847 5847 5847 5847 5847 5848 5848 5848 5848 5849 5849 5850 5850 5850 5851 5851 5851 5851 5852 5852 5852 5853
5854 5854 5854 5853 5853 5853 5853 5853 5853 5852 5852 5851 5851 5852 5852 5852 5851 5851 5850 5850 5850 5849 5848 5848 5848 5848 5848 5847 5847 5847 5846 5847 5847 5846 5845 5845 5845 5845 5845 5845 5845 5844 5844 5844 5844 5844 5844 5844 5844 5844 5844 5845 5845 5845 5845 5846 5846 5846 5846 5846 5846 5846 5847 5847 5847 5847 5847 5847 5847 5848 5848 5848 5849 5849 5850 5850 5850 5850 5851 5851 5851 5851 5852 5852 5852
5852 5852 5852 5851 5851 5851 5851 5851 5851 5850 5850 5849 5850 5850 5850 5850 5849 5849 5849 5849 5848 5848 5847 5847 5847 5846 5846 5846 5846 5845 5846 5845 5845 5845 5844 5844 5844 5844 5844 5844 5844 5843 5843 5843 5843 5843 5843 5843 5843 5843 5844 5844 5844 5844 5844 5845 5845 5846 5846 5846 5846 5846 5846 5846 5846 5846 5846 5847 5847 5847 5848 5848 5849 5849 5849 5850 5850 5850 5850 5851 5851 5851 5852 5852 5852
5850 5850 5850 5849 5849 5849 5849 5849 5848 5848 5848 5848 5848 5848 5848 5847 5847 5847 5847 5847 5847 5847 5846 5845 5845 5845 5845 5844 5844 5844 5844 5844 5844 5844 5844 5843 5842 5842 5843 5843 5842 5842 5842 5842 5842 5842 5842 5842 5842 5843 5843 5843 5843 5843 5844 5844 5845 5845 5845 5845 5845 5845 5846 5846 5846 5846 5846 5846 5847 5847 5848 5848 5848 5849 5849 5849 5849 5850 5850 5850 5851 5851 5851 5852 5852
5848 5848 5847 5847 5847 5847 5847 5846 5846 5846 5846 5846 5846 5845 5845 5845 5845 5845 5845 5845 5845 5845 5845 5844 5844 5844 5844 5843 5843 5843 5843 5842 5842 5843 5843 5842 5842 5841 5841 5841 5841 5841 5841 5841 5841 5841 5842 5842 5842 5842 5842 5842 5842 5842 5843 5844 5844 5844 5844 5844 5844 5845 5845 5845 5845 5845 5846 5846 5846 5847 5847 5848 5848 5849 5849 5849 5849 5849 5850 5850 5850 5851 5851 5851 5852
5846 5846 5846 5845 5845 5845 5844 5843 5843 5844 5844 5843 5843 5842 5842 5843 5843 5843 5843 5843 5844 5844 5843 5843 5842 5842 5842 5842 5841 5841 5841 5841 5841 5842 5842 5841 5841 5841 5840 5840 5840 5840 5840 5840 5840 5840 5840 5841 5841 5841 5841 5841 5842 5842 5842 5843 5843 5843 5843 5844 5844 5844 5844 5844 5845 5845 5845 5846 5846 5847 5847 5847 5848 5848 5849 5849 5849 5849 5849 5850 5850 5851 5851 5851 5852
5844 5844 5844 5843 5842 5842 5841 5841 5841 5841 5841 5840 5840 5840 5840 5841 5841 5842 5841 5841 5842 5842 5841 5841 5841 5841 5841 5841 5840 5840 5839 5839 5840 5841 5841 5840 5840 5840 5839 5838 5838 5838 5838 5838 5838 5838 5839 5839 5839 5839 5840 5840 5841 5841 5842 5842 5843 5843 5843 5843 5843 5843 5844 5844 5844 5844 5845 5845 5846 5847 5847 5847 5848 5848 5848 5848 5848 5849 5849 5850 5850 5850 5851 5851 5851
5842 5842 5841 5840 5840 5839 5839 5839 5838 5838 5838 5838 5837 5837 5838 5838 5839 5839 5838 5839 5840 5839 5839 5839 5839 5840 5840 5839 5839 5838 5838 5839 5839 5840 5839 5839 5839 5839 5838 5837 5837 5837 5837 5837 5837 5837 5837 5838 5838 5838 5838 5839 5840 5840 5841 5842 5842 5842 5842 5842 5843 5843 5843 5843 5843 5844 5844 5845 5846 5846 5847 5847 5847 5848 5848 5848 5848 5848 5849 5849 5850 5850 5850 5851 5851
5841 5841 5839 5837 5836 5836 5836 5836 5835 5835 5834 5834 5835 5835 5835 5836 5836 5836 5835 5836 5837 5837 5837 5837 5838 5838 5838 5838 5837 5837 5837 5838 5838 5838 5838 5838 5838 5838 5837 5836 5835 5835 5836 5836 5836 5836 5836 5836 5836 5837 5837 5837 5838 5839 5840 5841 5841 5841 5842 5842 5842 5842 5843 5843 5843 5843 5844 5844 5845 5846 5846 5847 5847 5847 5848 5848 5848 5848 5848 5849 5849 5850 5850 5850 5851
5839 5840 5837 5834 5833 5833 5833 5833 5831 5831 5831 5831 5832 5832 5832 5832 5833 5833 5833 5834 5834 5835 5835 5835 5836 5837 5837 5836 5836 5836 5837 5837 5837 5837 5837 5837 5837 5836 5835 5834 5834 5834 5834 5834 5835 5834 5834 5834 5834 5835 5835 5835 5836 5838 5839 5839 5840 5840 5841 5841 5841 5842 5842 5842 5842 5843 5843 5844 5844 5845 5846 5846 5847 5847 5847 5847 5847 5848 5848 5848 5849 5849 5850 5850 5850
5838 5839 5835 5831 5831 5831 5830 5829 5828 5827 5827 5829 5830 5830 5829 5830 5831 5831 5830 5831 5832 5832 5833 5834 5834 5835 5834 5834 5835 5835 5835 5835 5835 5835 5835 5835 5835 5834 5833 5833 5833 5833 5833 5833 5833 5833 5833 5832 5833 5833 5833 5833 5834 5836 5837 5837 5838 5839 5839 5840 5841 5841 5841 5841 5842 5842 5842 5843 5844 5844 5845 5845 5846 5846 5847 5847 5847 5847 5848 5848 5848 5849 5849 5850 5850
5837 5837 5834 5829 5829 5829 5827 5825 5823 5823 5825 5827 5827 5827 5827 5828 5828 5828 5828 5829 5829 5830 5831 5832 5832 5833 5833 5833 5834 5834 5833 5833 5833 5833 5834 5833 5833 5832 5831 5831 5832 5832 5831 5831 5831 5831 5831 5831 5831 5831 5831 5831 5832 5834 5835 5836 5837 5837 5838 5839 5839 5840 5840 5841 5841 5841 5842 5842 5843 5843 5844 5845 5845 5846 5846 5846 5847 5847 5847 5847 5848 5848 5848 5849 5849
5835 5835 5832 5828 5826 5825 5823 5821 5819 5820 5823 5825 5824 5825 5825 5825 5826 5826 5826 5826 5826 5827 5828 5829 5830 5831 5831 5832 5832 5831 5831 5831 5831 5832 5831 5831 5831 5830 5830 5829 5830 5830 5830 5829 5829 5829 5829 5830 5830 5830 5830 5830 5830 5832 5833 5834 5835 5836 5836 5837 5838 5839 5839 5839 5840 5840 5841 5841 5842 5842 5843 5844 5844 5845 5845 5846 5846 5847 5847 5847 5847 5847 5848 5848 5849
5833 5833 5831 5827 5822 5821 5821 5818 5817 5819 5821 5822 5822 5822 5823 5823 5824 5824 5823 5822 5822 5824 5825 5826 5827 5828 5829 5830 5830 5829 5829 5829 5830 5830 5830 5829 5829 5828 5827 5827 5827 5828 5829 5828 5828 5827 5827 5828 5829 5829 5829 5828 5828 5830 5831 5832 5833 5834 5835 5836 5837 5837 5838 5838 5839 5839 5840 5840 5841 5841 5842 5843 5843 5844 5844 5845 5845 5846 5847 5847 5847 5847 5847 5847 5848
5830 5830 5829 5825 5819 5817 5819 5817 5816 5818 5819 5819 5820 5820 5820 5821 5821 5821 5821 5820 5819 5820 5822 5824 5825 5826 5827 5828 5828 5827 5827 5827 5828 5828 5828 5828 5827 5826 5825 5825 5825 5826 5827 5827 5826 5826 5826 5826 5827 5827 5827 5827 5827 5828 5830 5831 5832 5833 5834 5835 5836 5836 5837 5837 5838 5838 5839 5839 5839 5840 5841 5841 5842 5843 5843 5844 5844 5845 5846 5846 5847 5847 5847 5847 5847
5828 5828 5826 5824 5819 5814 5815 5816 5814 5817 5818 5816 5817 5817 5818 5818 5818 5818 5819 5818 5817 5818 5819 5821 5822 5824 5825 5826 5826 5825 5826 5826 5826 5826 5826 5826 5825 5824 5823 5823 5823 5824 5825 5825 5825 5824 5824 5825 5826 5826 5826 5826 5826 5826 5828 5829 5830 5831 5832 5834 5835 5835 5836 5836 5837 5837 5838 5838 5838 5839 5839 5840 5841 5841 5842 5842 5843 5844 5845 5845 5846 5846 5847 5847 5847
5825 5826 5825 5822 5820 5815 5813 5813 5812 5816 5817 5814 5814 5814 5815 5816 5815 5815 5816 5815 5815 5816 5817 5818 5820 5822 5823 5824 5824 5824 5824 5824 5824 5824 5824 5824 5823 5822 5822 5821 5821 5822 5823 5823 5823 5823 5823 5823 5824 5825 5825 5825 5825 5825 5826 5827 5829 5830 5831 5832 5833 5833 5834 5834 5835 5836 5836 5836 5837 5838 5838 5839 5840 5840 5841 5841 5842 5843 5844 5844 5845 5846 5846 5846 5846
5822 5823 5823 5819 5817 5817 5814 5811 5810 5813 5815 5813 5812 5813 5813 5813 5813 5812 5812 5813 5812 5813 5815 5817 5819 5820 5821 5822 5822 5822 5822 5821 5821 5822 5822 5821 5821 5820 5819 5819 5820 5820 5821 5822 5822 5822 5822 5822 5823 5823 5823 5823 5823 5823 5824 5825 5826 5827 5828 5830 5830 5831 5832 5833 5833 5834 5835 5835 5836 5837 5837 5837 5838 5839 5840 5840 5841 5841 5842 5843 5844 5844 5845 5845 5845
5819 5819 5820 5816 5813 5814 5813 5810 5809 5811 5813 5812 5811 5811 5811 5811 5811 5811 5811 5812 5812 5813 5814 5816 5818 5819 5820 5820 5820 5821 5820 5820 5819 5819 5819 5818 5818 5817 5817 5817 5818 5819 5819 5819 5819 5819 5820 5820 5821 5821 5821 5821 5822 5822 5822 5822 5824 5825 5826 5827 5828 5829 5830 5831 5831 5832 5833 5833 5834 5835 5836 5836 5837 5838 5838 5839 5839 5840 5841 5842 5843 5843 5844 5844 5844
5816 5816 5815 5813 5811 5810 5811 5809 5809 5810 5811 5812 5810 5809 5810 5810 5810 5810 5810 5810 5810 5811 5813 5815 5816 5817 5817 5818 5818 5818 5818 5818 5817 5817 5817 5816 5815 5815 5816 5816 5816 5817 5817 5817 5817 5817 5817 5818 5818 5819 5819 5820 5820 5821 5820 5820 5822 5823 5824 5825 5826 5827 5828 5829 5829 5830 5831 5832 5833 5834 5834 5835 5835 5836 5837 5837 5838 5838 5839 5840 5841 5842 5842 5843 5843
5812 5812 5811 5810 5809 5808 5808 5808 5808 5808 5809 5810 5810 5808 5809 5810 5809 5809 5809 5809 5809 5810 5812 5813 5815 5815 5815 5816 5816 5816 5816 5816 5815 5815 5814 5814 5814 5814 5814 5814 5814 5815 5815 5814 5814 5814 5815 5815 5816 5817 5818 5818 5819 5819 5819 5819 5820 5821 5822 5823 5824 5826 5826 5827 5827 5828 5830 5831 5832 5832 5833 5833 5834 5834 5835 5836 5836 5837 5837 5838 5839 5840 5841 5841 5842
5808 5809 5809 5808 5808 5806 5806 5806 5806 5807 5807 5807 5807 5806 5807 5808 5808 5808 5809 5809 5810 5811 5812 5813 5813 5813 5813 5814 5814 5814 5814 5814 5813 5812 5812 5812 5812 5813 5813 5813 5812 5812 5812 5812 5811 5811 5812 5813 5814 5815 5817 5817 5817 5817 5817 5817 5818 5819 5820 5821 5822 5824 5824 5825 5826 5827 5828 5829 5830 5830 5831 5831 5832 5833 5833 5834 5835 5835 5836 5836 5837 5838 5839 5840 5840
5806 5806 5806 5805 5805 5804 5804 5804 5805 5805 5805 5805 5805 5804 5804 5806 5807 5807 5808 5808 5809 5811 5811 5812 5812 5812 5812 5812 5812 5812 5813 5813 5811 5811 5810 5811 5812 5812 5812 5811 5810 5809 5810 5810 5810 5809 5810 5811 5812 5814 5815 5816 5816 5816 5816 5816 5816 5817 5818 5819 5821 5822 5822 5823 5824 5825 5827 5828 5828 5829 5829 5829 5830 5830 5831 5832 5833 5833 5834 5835 5836 5837 5838 5838 5839
5803 5804 5804 5803 5803 5803 5802 5802 5803 5803 5803 5803 5804 5804 5803 5804 5805 5805 5805 5806 5807 5809 5809 5810 5809 5809 5809 5810 5810 5810 5811 5811 5810 5809 5809 5810 5812 5811 5810 5809 5808 5808 5808 5808 5808 5808 5808 5809 5810 5812 5813 5814 5815 5815 5815 5815 5815 5816 5817 5818 5819 5820 5821 5821 5822 5824 5825 5826 5826 5827 5827 5827 5828 5828 5829 5830 5831 5832 5832 5833 5834 5835 5836 5837 5837
5802 5802 5802 5802 5801 5802 5801 5801 5801 5801 5801 5801 5803 5803 5803 5803 5803 5803 5804 5804 5805 5806 5807 5807 5806 5806 5807 5807 5808 5808 5809 5809 5808 5808 5808 5808 5809 5808 5808 5807 5807 5807 5807 5807 5807 5807 5808 5808 5809 5810 5811 5812 5812 5813 5813 5814 5814 5815 5815 5816 5817 5818 5819 5820 5821 5822 5823 5824 5825 5825 5826 5826 5826 5827 5827 5828 5829 5830 5831 5831 5832 5833 5834 5835 5836
5800 5800 5800 5800 5800 5800 5800 5800 5800 5800 5799 5800 5801 5802 5802 5802 5802 5802 5803 5803 5804 5804 5805 5805 5804 5804 5805 5805 5806 5806 5806 5806 5806 5806 5805 5805 5806 5806 5806 5805 5805 5805 5805 5805 5805 5806 5807 5808 5808 5808 5809 5809 5810 5811 5812 5812 5813 5813 5814 5814 5815 5816 5816 5818 5819 5820 5821 5822 5823 5824 5824 5825 5825 5825 5825 5826 5827 5828 5829 5830 5831 5831 5832 5833 5834
5799 5799 5799 5799 5799 5799 5799 5798 5798 5799 5798 5799 5800 5800 5801 5802 5802 5802 5802 5802 5802 5802 5803 5803 5802 5803 5804 5804 5804 5804 5805 5805 5804 5804 5804 5804 5805 5805 5804 5804 5804 5803 5804 5804 5805 5805 5806 5806 5806 5807 5807 5808 5808 5809 5810 5810 5811 5811 5811 5812 5813 5814 5815 5816 5817 5817 5819 5820 5821 5822 5823 5823 5823 5823 5824 5824 5825 5826 5827 5828 5829 5829 5830 5831 5832
5798 5798 5798 5798 5797 5797 5796 5796 5797 5797 5797 5797 5797 5798 5799 5800 5800 5801 5801 5801 5802 5802 5802 5801 5801 5802 5802 5802 5802 5803 5803 5802 5803 5803 5803 5803 5804 5803 5803 5802 5802 5802 5802 5803 5804 5805 5805 5805 5805 5805 5806 5806 5806 5807 5807 5808 5809 5809 5810 5811 5811 5812 5813 5814 5815 5816 5817 5818 5819 5820 5821 5821 5822 5822 5822 5822 5823 5824 5824 5825 5826 5828 5829 5829 5830
5797 5797 5796 5795 5795 5794 5794 5794 5794 5794 5794 5795 5796 5797 5798 5798 5798 5798 5799 5800 5801 5801 5800 5800 5800 5800 5800 5801 5801 5801 5801 5801 5802 5803 5803 5803 5802 5802 5801 5801 5802 5802 5802 5802 5803 5804 5804 5803 5803 5804 5804 5804 5805 5805 5806 5806 5807 5808 5808 5809 5810 5810 5812 5812 5813 5814 5815 5816 5817 5818 5818 5819 5820 5820 5820 5820 5821 5821 5822 5823 5824 5825 5826 5827 5828
5796 5796 5794 5793 5793 5792 5792 5792 5792 5792 5793 5794 5795 5795 5795 5796 5796 5797 5798 5799 5799 5799 5799 5799 5799 5799 5799 5800 5800 5800 5800 5800 5801 5802 5802 5802 5801 5801 5801 5801 5801 5801 5801 5801 5803 5803 5803 5803 5803 5802 5802 5803 5803 5803 5804 5804 5805 5806 5806 5807 5808 5809 5810 5811 5812 5813 5813 5814 5815 5816 5817 5817 5818 5818 5818 5818 5819 5819 5820 5820 5821 5822 5823 5824 5825
5795 5795 5794 5793 5792 5791 5791 5791 5791 5791 5791 5793 5793 5794 5794 5795 5795 5796 5796 5797 5797 5797 5798 5798 5798 5798 5798 5799 5799 5799 5799 5800 5800 5801 5801 5800 5800 5800 5800 5800 5800 5800 5800 5801 5802 5802 5802 5802 5802 5801 5801 5801 5801 5802 5802 5803 5803 5803 5804 5805 5806 5807 5808 5809 5810 5810 5811 5812 5813 5813 5814 5815 5815 5815 5815 5816 5816 5817 5817 5818 5819 5819 5820 5821 5822
5794 5794 5793 5792 5791 5790 5790 5789 5789 5789 5790 5791 5791 5792 5793 5794 5794 5794 5794 5795 5796 5796 5796 5796 5797 5797 5797 5798 5798 5798 5799 5799 5799 5799 5799 5799 5799 5799 5799 5799 5799 5799 5799 5800 5801 5802 5802 5801 5801 5801 5801 5800 5800 5801 5801 5801 5802 5802 5803 5803 5804 5805 5806 5807 5807 5808 5808 5809 5810 5810 5811 5812 5812 5812 5812 5813 5813 5814 5815 5816 5816 5817 5818 5818 5819
5792 5792 5792 5791 5790 5789 5788 5787 5787 5787 5788 5789 5790 5791 5792 5792 5793 5793 5793 5794 5795 5796 5796 5796 5796 5796 5796 5797 5796 5797 5797 5798 5797 5797 5798 5798 5798 5798 5798 5798 5798 5798 5798 5798 5799 5801 5801 5801 5800 5800 5800 5801 5801 5801 5801 5801 5801 5802 5802 5802 5803 5804 5804 5805 5806 5806 5806 5806 5807 5808 5808 5809 5809 5810 5810 5810 5810 5811 5812 5813 5814 5814 5815 5815 5816
5790 5790 5790 5789 5788 5788 5787 5786 5786 5786 5787 5788 5789 5790 5791 5791 5792 5792 5793 5793 5794 5795 5795 5795 5795 5795 5796 5796 5795 5795 5795 5796 5796 5796 5796 5797 5797 5797 5797 5797 5797 5797 5797 5797 5798 5800 5801 5800 5799 5799 5800 5801 5801 5801 5801 5801 5801 5801 5801 5801 5802 5802 5803 5803 5804 5804 5804 5804 5804 5805 5805 5806 5807 5807 5807 5808 5808 5809 5810 5810 5811 5812 5812 5812 5813
5788 5788 5787 5786 5785 5785 5785 5784 5785 5785 5785 5786 5788 5789 5790 5790 5791 5791 5792 5792 5793 5793 5794 5794 5794 5794 5794 5794 5794 5794 5794 5794 5794 5795 5795 5795 5796 5796 5795 5796 5796 5796 5796 5795 5796 5799 5800 5799 5798 5799 5800 5801 5800 5801 5801 5801 5801 5800 5800 5800 5800 5801 5801 5802 5802 5802 5802 5803 5803 5803 5803 5804 5804 5804 5805 5805 5806 5807 5808 5808 5809 5809 5809 5810 5811
5786 5785 5784 5783 5782 5782 5782 5783 5783 5784 5784 5785 5786 5787 5788 5789 5789 5790 5790 5791 5791 5792 5792 5792 5792 5792 5793 5793 5793 5792 5792 5792 5793 5793 5794 5794 5794 5795 5795 5795 5795 5795 5794 5793 5794 5797 5799 5798 5797 5798 5800 5800 5800 5800 5800 5800 5800 5799 5799 5799 5799 5800 5800 5800 5801 5801 5801 5801 5801 5801 5801 5801 5801 5801 5802 5802 5803 5804 5805 5806 5807 5806 5806 5808 5809
5783 5782 5781 5781 5779 5779 5780 5780 5781 5782 5782 5783 5783 5784 5785 5786 5787 5787 5788 5788 5789 5790 5790 5790 5790 5790 5791 5791 5791 5791 5791 5791 5791 5792 5793 5793 5793 5793 5794 5794 5794 5794 5794 5792 5792 5795 5797 5797 5797 5797 5798 5798 5799 5799 5799 5799 5798 5799 5799 5799 5799 5799 5799 5800 5800 5800 5800 5800 5800 5800 5800 5800 5799 5799 5799 5799 5800 5802 5802 5803 5804 5803 5803 5805 5806
5780 5779 5778 5778 5777 5776 5777 5777 5778 5779 5780 5781 5781 5782 5783 5784 5784 5785 5785 5786 5787 5787 5788 5788 5788 5788 5789 5789 5789 5790 5790 5790 5791 5791 5792 5792 5792 5792 5792 5793 5793 5793 5793 5792 5791 5792 5794 5795 5796 5796 5796 5796 5797 5797 5798 5798 5798 5798 5798 5798 5798 5798 5798 5798 5798 5799 5799 5799 5799 5798 5798 5798 5797 5796 5795 5796 5797 5799 5800 5800 5800 5800 5801 5802 5803
5776 5776 5776 5774 5774 5775 5775 5775 5776 5777 5779 5780 5780 5780 5781 5782 5782 5783 5783 5784 5785 5785 5786 5786 5787 5787 5787 5787 5788 5788 5789 5789 5790 5790 5790 5791 5791 5791 5791 5791 5792 5792 5792 5792 5791 5791 5792 5794 5794 5795 5795 5795 5795 5795 5796 5796 5796 5796 5797 5797 5797 5796 5797 5797 5797 5797 5797 5797 5797 5797 5796 5796 5796 5795 5793 5794 5795 5795 5796 5797 5797 5798 5799 5800 5800
5772 5772 5773 5772 5771 5773 5774 5775 5775 5776 5778 5779 5780 5780 5780 5781 5781 5781 5782 5782 5783 5784 5784 5785 5785 5785 5786 5786 5786 5787 5787 5788 5788 5789 5789 5789 5789 5789 5790 5790 5790 5790 5791 5791 5791 5790 5790 5791 5792 5793 5793 5793 5793 5793 5794 5795 5795 5795 5795 5796 5795 5795 5796 5796 5795 5795 5795 5795 5795 5795 5795 5795 5794 5793 5792 5792 5792 5793 5793 5794 5795 5796 5796 5797 5798
5768 5770 5773 5773 5771 5772 5774 5774 5774 5775 5776 5777 5778 5779 5780 5780 5781 5781 5781 5782 5782 5782 5783 5784 5784 5784 5784 5785 5785 5785 5786 5786 5787 5787 5788 5788 5788 5788 5788 5788 5788 5789 5789 5790 5790 5790 5789 5789 5790 5791 5791 5791 5791 5791 5792 5793 5793 5794 5794 5794 5794 5793 5794 5795 5794 5794 5793 5793 5793 5792 5793 5793 5792 5792 5791 5791 5791 5791 5792 5792 5793 5794 5794 5795 5796
5770 5771 5774 5774 5773 5772 5771 5771 5771 5771 5772 5773 5775 5777 5778 5779 5780 5780 5781 5781 5782 5782 5783 5783 5783 5784 5783 5784 5784 5784 5784 5785 5785 5786 5786 5786 5786 5786 5786 5787 5787 5787 5788 5788 5788 5789 5789 5788 5789 5789 5789 5789 5789 5789 5790 5791 5792 5792 5792 5793 5792 5792 5792 5792 5792 5792 5792 5791 5791 5790 5790 5790 5790 5790 5790 5790 5790 5790 5790 5790 5791 5792 5792 5793 5793
5771 5771 5770 5769 5768 5769 5769 5767 5767 5767 5768 5770 5772 5773 5775 5776 5777 5778 5779 5780 5781 5782 5782 5782 5782 5783 5782 5782 5782 5783 5783 5783 5783 5784 5784 5784 5784 5785 5785 5785 5785 5785 5786 5786 5786 5787 5787 5787 5787 5787 5787 5787 5787 5787 5787 5788 5789 5790 5790 5791 5791 5791 5790 5790 5790 5790 5790 5790 5789 5789 5788 5788 5788 5788 5788 5788 5788 5788 5788 5789 5789 5789 5790 5790 5791
5767 5766 5765 5764 5765 5768 5767 5766 5765 5766 5767 5769 5770 5771 5772 5773 5775 5776 5777 5778 5779 5780 5781 5781 5781 5781 5781 5781 5781 5781 5781 5781 5781 5782 5782 5782 5783 5783 5783 5783 5783 5783 5783 5784 5784 5784 5784 5784 5785 5785 5785 5784 5784 5785 5785 5786 5787 5787 5788 5788 5788 5789 5789 5789 5788 5788 5788 5788 5787 5787 5786 5786 5786 5786 5786 5786 5786 5786 5786 5787 5787 5787 5787 5787 5788
5765 5764 5762 5762 5765 5767 5766 5766 5766 5767 5768 5769 5769 5769 5770 5771 5772 5773 5774 5776 5777 5778 5779 5779 5779 5779 5779 5779 5779 5779 5779 5779 5780 5780 5780 5781 5781 5781 5781 5781 5781 5781 5781 5781 5781 5781 5782 5782 5782 5782 5782 5782 5782 5783 5783 5784 5784 5785 5785 5786 5786 5786 5787 5787 5787 5786 5786 5786 5785 5785 5784 5784 5783 5783 5783 5783 5783 5783 5784 5784 5784 5785 5785 5784 5785
5764 5765 5763 5762 5763 5763 5763 5765 5767 5768 5769 5769 5769 5770 5770 5770 5771 5772 5772 5773 5774 5775 5776 5777 5777 5778 5778 5778 5778 5778 5778 5778 5778 5778 5778 5779 5779 5779 5779 5779 5779 5779 5779 5779 5779 5779 5779 5780 5780 5780 5780 5780 5780 5780 5781 5781 5782 5782 5783 5783 5784 5784 5784 5784 5784 5784 5783 5783 5783 5782 5782 5781 5781 5780 5780 5780 5780 5780 5780 5781 5781 5781 5781 5781 5781
5763 5765 5765 5764 5763 5762 5761 5763 5764 5766 5767 5768 5768 5769 5769 5770 5770 5771 5771 5771 5771 5772 5773 5774 5774 5775 5775 5776 5776 5776 5776 5776 5776 5776 5776 5776 5776 5777 5777 5777 5777 5777 5777 5777 5777 5777 5777 5778 5778 5778 5778 5778 5778 5779 5779 5779 5779 5780 5780 5781 5781 5781 5781 5781 5781 5781 5780 5780 5780 5779 5779 5779 5778 5778 5778 5778 5777 5777 5777 5777 5777 5778 5778 5778 5778
5761 5763 5763 5764 5765 5763 5763 5762 5762 5763 5764 5765 5766 5767 5768 5769 5769 5770 5770 5769 5769 5769 5770 5771 5771 5771 5772 5773 5773 5773 5774 5774 5774 5774 5774 5774 5774 5774 5775 5775 5775 5775 5775 5775 5775 5775 5776 5776 5776 5776 5776 5776 5777 5777 5777 5777 5777 5777 5777 5778 5778 5778 5778 5778 5778 5778 5777 5777 5777 5777 5776 5776 5776 5775 5775 5775 5775 5775 5774 5774 5774 5774 5774 5774 5774